FW9568 Weather Reports


Display with metric or nautical units.
time (UTC)temp
F
wind
direction
speed
MPH
gust
MPH
rain 1hr
in
rain 24hr
in
rain mn
in
humidity
%
barometer
mb
20260905064503 68 0 0.0 0.0 0.00 0.00 0.00 60 1020.7
20260905063603 68 284 0.0 3.0 0.00 0.00 0.00 60 1020.6
20260905062918 68 294 0.0 2.0 0.00 0.00 0.00 59 1020.8
20260905062017 69 312 0.0 3.0 0.00 0.00 0.00 59 1020.7
20260905061117 69 50 0.0 1.0 0.00 0.00 0.00 59 1020.5
20260905060004 70 54 0.0 1.0 0.00 0.00 0.00 57 1020.3
20260905055616 70 56 0.0 3.0 0.00 0.00 0.00 57 1020.4
20260905054503 70 65 1.0 3.0 0.00 0.00 0.00 56 1020.2
20260905053818 70 60 1.0 3.0 0.00 0.00 0.00 56 1020.1
20260905052918 70 67 2.0 5.0 0.00 0.00 0.00 55 1020.1
20260905052017 70 77 1.0 3.0 0.00 0.00 0.00 54 1020.1
20260905050903 71 76 2.0 4.0 0.00 0.00 0.00 53 1020.1
20260905050003 71 78 2.0 3.0 0.00 0.00 0.00 52 1019.9
20260905045615 71 78 2.0 3.0 0.00 0.00 0.00 52 1019.9
20260905044503 72 66 1.0 3.0 0.00 0.00 0.00 52 1020.0
20260905043603 72 69 1.0 4.0 0.00 0.00 0.00 51 1020.2
20260905042703 72 73 1.0 3.0 0.00 0.00 0.00 50 1020.2
20260905041803 73 73 1.0 3.0 0.00 0.00 0.00 48 1020.2
20260905040903 74 77 1.0 4.0 0.00 0.00 0.00 47 1020.3
20260905040215 74 75 1.0 4.0 0.00 0.00 0.00 45 1020.3
20260905035403 75 77 1.0 4.0 0.00 0.00 0.00 42 1020.2
20260905034503 75 81 1.0 2.0 0.00 0.00 0.00 42 1020.1
20260905033603 76 90 1.0 3.0 0.00 0.00 0.00 42 1020.0
20260905032703 76 95 1.0 3.0 0.00 0.00 0.00 41 1019.9
20260905032016 76 96 2.0 3.0 0.00 0.00 0.00 41 1019.9
20260905030903 77 92 1.0 3.0 0.00 0.00 0.00 40 1019.8
20260905030003 77 91 1.0 3.0 0.00 0.00 0.00 39 1019.8
20260905025403 77 91 2.0 4.0 0.00 0.00 0.00 39 1019.7
20260905024503 77 85 2.0 4.0 0.00 0.00 0.00 39 1019.6
20260905023817 78 89 1.0 4.0 0.00 0.00 0.00 38 1019.4
20260905022703 78 91 0.0 2.0 0.00 0.00 0.00 37 1019.0
20260905021803 79 99 0.0 3.0 0.00 0.00 0.00 37 1018.7
20260905020903 79 135 0.0 2.0 0.00 0.00 0.00 37 1018.6
20260905020003 80 218 0.0 1.0 0.00 0.00 0.00 36 1018.7
20260905015618 80 198 0.0 3.0 0.00 0.00 0.00 36 1018.5
20260905014718 81 180 1.0 3.0 0.00 0.00 0.00 35 1018.6
20260905013603 82 172 1.0 4.0 0.00 0.00 0.00 34 1018.5
20260905012703 83 150 1.0 4.0 0.00 0.00 0.00 32 1018.3
20260905011803 84 120 0.0 1.0 0.00 0.00 0.00 32 1018.3
20260905010903 84 126 1.0 6.0 0.00 0.00 0.00 31 1018.2
20260905010003 85 139 0.0 3.0 0.00 0.00 0.00 30 1018.1
20260905005403 86 122 1.0 4.0 0.00 0.00 0.00 29 1018.1
20260905004503 86 104 1.0 4.0 0.00 0.00 0.00 28 1018.0
20260905003816 86 135 1.0 4.0 0.00 0.00 0.00 28 1018.0
20260905002703 86 111 1.0 3.0 0.00 0.00 0.00 28 1017.9
20260905002019 87 124 1.0 3.0 0.00 0.00 0.00 28 1017.9
20260905001119 87 119 2.0 4.0 0.00 0.00 0.00 27 1017.9
20260905000003 87 113 2.0 7.0 0.00 0.00 0.00 27 1017.9
20260904235403 87 123 2.0 5.0 0.00 0.00 0.00 27 1017.7
20260904234503 88 114 1.0 5.0 0.00 0.00 0.00 26 1017.8
20260904233603 88 114 1.0 4.0 0.00 0.00 0.00 26 1017.7
20260904232703 89 142 1.0 4.0 0.00 0.00 0.00 25 1017.8
20260904232019 89 131 1.0 4.0 0.00 0.00 0.00 25 1017.6
20260904230903 90 127 2.0 4.0 0.00 0.00 0.00 26 1017.5
20260904230003 90 124 2.0 4.0 0.00 0.00 0.00 25 1017.5
20260904225617 90 120 1.0 4.0 0.00 0.00 0.00 25 1017.5
20260904224716 90 114 2.0 6.0 0.00 0.00 0.00 25 1017.7
20260904223816 90 137 1.0 3.0 0.00 0.00 0.00 26 1017.6
20260904222703 89 149 1.0 4.0 0.00 0.00 0.00 26 1017.7
20260904221803 89 127 2.0 9.0 0.00 0.00 0.00 27 1017.7
20260904220903 89 118 2.0 7.0 0.00 0.00 0.00 26 1017.7
20260904220003 89 123 2.0 7.0 0.00 0.00 0.00 27 1017.7
20260904215403 89 129 2.0 7.0 0.00 0.00 0.00 26 1017.8
20260904214503 89 129 2.0 4.0 0.00 0.00 0.00 27 1017.8
20260904213603 90 133 2.0 4.0 0.00 0.00 0.00 26 1018.0
20260904212703 90 112 2.0 7.0 0.00 0.00 0.00 26 1018.0
20260904211803 91 135 2.0 8.0 0.00 0.00 0.00 26 1018.1
20260904210903 91 160 2.0 6.0 0.00 0.00 0.00 26 1018.2
20260904210003 91 138 2.0 8.0 0.00 0.00 0.00 26 1018.1
20260904205403 90 123 2.0 8.0 0.00 0.00 0.00 27 1018.3
20260904204503 91 111 2.0 6.0 0.00 0.00 0.00 26 1018.2
20260904203603 91 110 3.0 7.0 0.00 0.00 0.00 25 1018.4
20260904202918 92 123 3.0 9.0 0.00 0.00 0.00 26 1018.4
20260904202018 92 116 4.0 9.0 0.00 0.00 0.00 25 1018.4
20260904201117 93 139 2.0 7.0 0.00 0.00 0.00 26 1018.4
20260904200003 93 124 2.0 8.0 0.00 0.00 0.00 26 1018.6
20260904195403 93 110 2.0 8.0 0.00 0.00 0.00 24 1018.6
20260904194503 92 170 1.0 5.0 0.00 0.00 0.00 24 1018.7
20260904193603 92 141 2.0 9.0 0.00 0.00 0.00 27 1018.8
20260904192703 92 163 1.0 4.0 0.00 0.00 0.00 26 1018.8
20260904191803 91 239 1.0 5.0 0.00 0.00 0.00 26 1019.0
20260904190903 91 268 1.0 3.0 0.00 0.00 0.00 24 1019.0
20260904190003 92 194 1.0 3.0 0.00 0.00 0.00 27 1019.0
20260904185403 92 104 2.0 4.0 0.00 0.00 0.00 25 1019.1
20260904184503 91 121 1.0 6.0 0.00 0.00 0.00 25 1019.3
20260904183603 90 166 2.0 6.0 0.00 0.00 0.00 26 1019.4
20260904182703 89 188 1.0 5.0 0.00 0.00 0.00 26 1019.3
20260904181803 89 256 1.0 5.0 0.00 0.00 0.00 28 1019.7
20260904180903 90 267 1.0 3.0 0.00 0.00 0.00 26 1019.9
20260904180215 90 225 1.0 5.0 0.00 0.00 0.00 26 1019.9
20260904175619 90 150 1.0 5.0 0.00 0.00 0.00 28 1019.9
20260904174503 90 153 1.0 4.0 0.00 0.00 0.00 26 1020.0
20260904173603 89 113 2.0 8.0 0.00 0.00 0.00 28 1020.2
20260904172703 88 243 1.0 4.0 0.00 0.00 0.00 30 1020.1
20260904171803 88 213 1.0 2.0 0.00 0.00 0.00 27 1020.2
20260904170903 87 261 0.0 2.0 0.00 0.00 0.00 28 1020.3
20260904170219 87 244 1.0 3.0 0.00 0.00 0.00 29 1020.1
20260904165403 86 245 1.0 3.0 0.00 0.00 0.00 28 1020.2
20260904164718 85 243 1.0 3.0 0.00 0.00 0.00 32 1020.1
20260904163603 85 253 0.0 1.0 0.00 0.00 0.00 32 1020.3
20260904162703 86 180 0.0 1.0 0.00 0.00 0.00 30 1020.3
20260904162016 86 224 0.0 1.0 0.00 0.00 0.00 32 1020.3
20260904160903 86 159 0.0 1.0 0.00 0.00 0.00 30 1020.3
20260904160003 85 184 0.0 2.0 0.00 0.00 0.00 30 1020.2
20260904155619 85 117 0.0 2.0 0.00 0.00 0.00 31 1020.2
20260904154503 86 0 0.0 0.0 0.00 0.00 0.00 29 1020.1
20260904153603 85 0 0.0 1.0 0.00 0.00 0.00 29 1020.0
20260904152703 84 0 0.0 0.0 0.00 0.00 0.00 34 1020.1
20260904151803 82 300 0.0 1.0 0.00 0.00 0.00 36 1020.1
20260904150903 81 300 0.0 1.0 0.00 0.00 0.00 37 1020.1
20260904150003 79 300 0.0 3.0 0.00 0.00 0.00 37 1020.1
20260904145403 78 300 0.0 3.0 0.00 0.00 0.00 36 1020.1
20260904144503 77 0 0.0 0.0 0.00 0.00 0.00 37 1020.1
20260904143603 75 0 0.0 0.0 0.00 0.00 0.00 40 1020.2
20260904142916 73 0 0.0 0.0 0.00 0.00 0.00 46 1020.1
20260904141803 70 0 0.0 0.0 0.00 0.00 0.00 51 1020.1
20260904140903 68 0 0.0 0.0 0.00 0.00 0.00 55 1020.2
20260904140003 67 0 0.0 0.0 0.00 0.00 0.00 53 1020.0
20260904135403 66 0 0.0 0.0 0.00 0.00 0.00 57 1019.9
20260904134503 65 0 0.0 1.0 0.00 0.00 0.00 54 1019.8
20260904133816 64 300 0.0 1.0 0.00 0.00 0.00 57 1019.6
20260904132916 62 0 0.0 0.0 0.00 0.00 0.00 59 1019.4
20260904132019 62 300 0.0 1.0 0.00 0.00 0.00 58 1019.3
20260904130903 62 301 1.0 2.0 0.00 0.00 0.00 58 1019.0
20260904130003 61 300 1.0 3.0 0.00 0.00 0.00 59 1018.8
20260904125403 60 301 1.0 2.0 0.00 0.00 0.00 60 1018.8
20260904124503 60 0 0.0 0.0 0.00 0.00 0.00 60 1018.8
20260904123603 60 301 0.0 2.0 0.00 0.00 0.00 60 1018.8
20260904122703 60 298 1.0 3.0 0.00 0.00 0.00 61 1018.6
20260904121803 60 294 2.0 4.0 0.00 0.00 0.00 62 1018.3
20260904120903 60 302 1.0 3.0 0.00 0.00 0.00 63 1018.3
20260904120003 60 297 1.0 4.0 0.00 0.00 0.00 64 1018.3
20260904115617 60 298 1.0 4.0 0.00 0.00 0.00 63 1018.2
20260904114503 60 296 0.0 3.0 0.00 0.00 0.00 64 1018.1
20260904113603 60 296 0.0 1.0 0.00 0.00 0.00 65 1017.9
20260904112919 60 296 0.0 1.0 0.00 0.00 0.00 65 1018.0
20260904111803 59 296 0.0 1.0 0.00 0.00 0.00 65 1018.1
20260904110903 59 296 0.0 2.0 0.00 0.00 0.00 65 1018.0
20260904110003 59 0 0.0 0.0 0.00 0.00 0.00 65 1018.0
20260904105403 60 0 0.0 0.0 0.00 0.00 0.00 65 1018.0
20260904104503 60 296 1.0 3.0 0.00 0.00 0.00 64 1018.0
20260904103603 60 284 0.0 3.0 0.00 0.00 0.00 64 1017.8
20260904102703 60 278 0.0 2.0 0.00 0.00 0.00 64 1017.8
20260904101803 60 278 0.0 2.0 0.00 0.00 0.00 63 1017.6
20260904100903 61 278 1.0 4.0 0.00 0.00 0.00 62 1017.6
20260904100003 61 277 1.0 4.0 0.00 0.00 0.00 62 1017.5
20260904095403 61 263 0.0 3.0 0.00 0.00 0.00 62 1017.5
20260904094503 62 0 0.0 0.0 0.00 0.00 0.00 61 1017.7
20260904093603 62 0 0.0 0.0 0.00 0.00 0.00 60 1017.6
20260904092703 62 0 0.0 0.0 0.00 0.00 0.00 60 1017.2
20260904091803 62 0 0.0 0.0 0.00 0.00 0.00 59 1017.4
20260904090903 63 263 0.0 2.0 0.00 0.00 0.00 58 1017.4
20260904090003 64 0 0.0 0.0 0.00 0.00 0.00 57 1017.5
20260904085403 64 263 0.0 1.0 0.00 0.00 0.00 57 1017.3
20260904084503 64 263 0.0 2.0 0.00 0.00 0.00 56 1017.3
20260904083818 64 266 0.0 2.0 0.00 0.00 0.00 57 1017.1
20260904082703 64 296 1.0 3.0 0.00 0.00 0.00 56 1017.4
20260904082017 64 294 0.0 2.0 0.00 0.00 0.00 55 1017.5
20260904080903 65 294 0.0 3.0 0.00 0.00 0.00 55 1017.5
20260904080003 65 0 0.0 0.0 0.00 0.00 0.00 53 1017.6
20260904075615 66 0 0.0 0.0 0.00 0.00 0.00 53 1017.6
20260904074503 66 0 0.0 0.0 0.00 0.00 0.00 52 1017.5
20260904073603 66 292 0.0 2.0 0.00 0.00 0.00 52 1017.7
20260904072703 67 293 1.0 3.0 0.00 0.00 0.00 51 1017.7
20260904071803 67 291 0.0 1.0 0.00 0.00 0.00 51 1017.9
20260904070903 67 291 0.0 3.0 0.00 0.00 0.00 50 1017.7
20260904070215 67 293 0.0 2.0 0.00 0.00 0.00 50 1017.9
20260904065403 68 96 1.0 2.0 0.00 0.00 0.00 50 1017.9